TimeCDT,TemperatureF,Dew PointF,Humidity,Sea Level PressureIn,VisibilityMPH,Wind Direction,Wind SpeedMPH,Gust SpeedMPH,PrecipitationIn,Events,Conditions,WindDirDegrees,DateUTC
12:52 AM,36.0,28.9,76,30.20,10.0,West,3.5,-,N/A,,Clear,270,2012-10-10 05:52:00
1:52 AM,36.0,28.9,76,30.22,10.0,Calm,Calm,-,N/A,,Clear,0,2012-10-10 06:52:00
2:52 AM,33.1,28.0,82,30.23,10.0,Calm,Calm,-,N/A,,Clear,0,2012-10-10 07:52:00
3:52 AM,30.9,27.0,85,30.24,10.0,SSW,3.5,-,N/A,,Clear,210,2012-10-10 08:52:00
4:52 AM,30.0,27.0,88,30.25,10.0,Calm,Calm,-,N/A,,Clear,0,2012-10-10 09:52:00
5:52 AM,30.0,25.0,82,30.26,10.0,Calm,Calm,-,N/A,,Clear,0,2012-10-10 10:52:00
6:52 AM,28.9,26.1,89,30.28,10.0,Calm,Calm,-,N/A,,Clear,0,2012-10-10 11:52:00
7:52 AM,28.9,26.1,89,30.29,10.0,Calm,Calm,-,N/A,,Clear,0,2012-10-10 12:52:00
8:52 AM,36.0,30.0,79,30.30,10.0,Calm,Calm,-,N/A,,Clear,0,2012-10-10 13:52:00
9:52 AM,44.1,30.9,60,30.31,10.0,SW,4.6,-,N/A,,Clear,220,2012-10-10 14:52:00
10:52 AM,53.1,30.0,41,30.30,10.0,SSW,4.6,-,N/A,,Clear,200,2012-10-10 15:52:00
11:52 AM,57.9,28.0,32,30.29,10.0,Variable,3.5,-,N/A,,Clear,0,2012-10-10 16:52:00
12:52 PM,62.1,27.0,26,30.27,10.0,Variable,3.5,-,N/A,,Clear,0,2012-10-10 17:52:00
1:52 PM,64.0,28.0,26,30.23,10.0,Variable,6.9,-,N/A,,Clear,0,2012-10-10 18:52:00
2:52 PM,64.9,26.1,23,30.19,10.0,Variable,3.5,-,N/A,,Clear,0,2012-10-10 19:52:00
3:52 PM,66.9,26.1,21,30.16,10.0,Calm,Calm,-,N/A,,Clear,0,2012-10-10 20:52:00
4:52 PM,66.0,27.0,23,30.14,10.0,SW,8.1,-,N/A,,Clear,220,2012-10-10 21:52:00
5:52 PM,63.0,28.9,28,30.12,10.0,SSW,9.2,-,N/A,,Clear,210,2012-10-10 22:52:00
6:52 PM,57.9,30.0,35,30.12,10.0,Calm,Calm,-,N/A,,Clear,0,2012-10-10 23:52:00
7:52 PM,51.1,30.9,46,30.13,10.0,Calm,Calm,-,N/A,,Clear,0,2012-10-11 00:52:00
8:52 PM,52.0,30.0,43,30.13,10.0,Calm,Calm,-,N/A,,Clear,0,2012-10-11 01:52:00
9:52 PM,51.1,30.9,46,30.12,10.0,SSW,3.5,-,N/A,,Clear,200,2012-10-11 02:52:00
10:52 PM,53.1,30.9,43,30.12,10.0,South,8.1,-,N/A,,Clear,190,2012-10-11 03:52:00
11:52 PM,53.1,32.0,45,30.11,10.0,SSW,8.1,-,N/A,,Clear,200,2012-10-11 04:52:00